SCP
-0 -0 -0 -0 -0 -0 -0 -0 0 0 0 0 0 0 0 0 0 0 0 0 0 0 0 0 -0 0 0 0 0 0 0 0 0 0 -0 -0 -0 -0 -0 -0 0 -0 -0
-0 -0 -0 -0 -0 -0 -0 -0 -0 -0 -0 0 0 0 0 0 0 0 0 0 0 0 0 0 0 0 0 0 0 0 0 0 0 0 0 -0 -0 -0 -0 -0 -0 -0 -0
-0 -0 -0 -0 -0 -0 -0 -0 -0 -0 -0 -0 -0 -0 0 0 0 0 0 0 0 0 0 0 0 0 0 0 0 0 0 0 0 0 -0 0 0 0 0 -0 -0 -0 -0
-0 -0 -0 -0 -0 -0 -0 -0 -0 -0 -0 -0 -0 -0 -0 0 0 0 0 0 0 0 0 0 0 0 0 0 0 0 0 0 0 0 0 0 0 0 0 0 0 0 -0
-0 -0 -0 -0 -0 -0 -0 -0 -0 -0 -0 -0 -0 -0 -0 0 0 0 0 0 0 0 0 0 0 0 0 0 0 0 0 0 0 0 0 0 0 0 0 0 0 0 0
-0 -0 -0 -0 0 0 -0 -0 -0 -0 -0 -0 -0 -0 0 0 0 0 0 0 0 0 0 0 0 0 0 0 0 0 0 0 0 0 0 0 0 0 0 0 0 0 0
-0 -0 -0 -0 -0 0 0 0 0 0 -0 -0 0 0 0 0 0 0 0 0 0 0 0 0 0 0 0 0 0 0 0 0 0 0 0 0 0 0 0 0 0 0 0
-0 -0 -0 -0 -0 0 0 0 0 0 0 0 0 0 0 0 0 0 0 0 0 0 0 0 0 0 0 0 0 0 0 0 0 0 0 0 0 0 0 0 0 0 0
0 -0 -0 -0 -0 0 0 0 0 0 0 0 0 0 0 0 0 0 0 0 0 0 0 0 0 0 0 0 0 0 0 0 0 0 0 0 0 0 0 0 0 0 0
0 0 -0 -0 -0 -0 -0 0 0 0 0 0 0 0 0 0 0 0 0 0 0 0 0 0 0 0 0 0 0 0 0 0 0 0 0 0 0 0 0 0 0 0 0
0 0 0 0 0 -0 0 0 0 0 0 0 0 0 0 0 0 0 0 0 0 0 0 0 0 0 0 0 0 0 0 0 0 0 0 0 0 0 0 0 0 0 0
0 0 0 0 0 0 0 0 0 0 0 0 0 0 0 0 0 0 0 0 0 0 0 0 0 0 0 0 0 0 0 0 0 0 0 0 0 0 0 0 0 0 0
0 0 0 0 0 0 0 0 0 0 0 0 0 0 0 0 0 0 0 0 0 0 0 0 0 0 0 0 0 0 0 0 0 0 0 0 0 0 0 0 0 0 0
0 0 0 0 0 0 0 0 0 0 0 0 0 0 0 0 0 0 0 0 0 0 0 0 0 0 0 0 0 0 0 0 0 0 0 0 0 0 0 0 0 0 0
0 0 0 0 0 0 0 0 0 0 0 0 0 0 0 0 0 0 0 0 0 0 0 0 0 0 0 0 0 0 0 0 0 0 0 0 0 0 0 0 0 0 0
0 0 0 0 0 0 0 0 0 0 0 0 0 0 0 0 0 0 0 0 0 0 0 0 0 0 0 0 0 0 0 0 0 0 0 0 0 0 0 0 0 0 0
0 0 0 0 0 0 0 0 0 0 0 0 0 0 0 0 0 0 0 0 0 0 0 0 0 0 0 0 0 0 0 0 0 0 0 0 0 0 0 0 0 0 0
0 0 0 0 0 0 0 0 0 0 0 0 0 0 0 0 0 0 0 0 0 0 0 0 0 0 0 0 0 0 0 0 0 0 0 0 0 0 0 0 0 0 0
0 0 0 0 0 0 0 0 0 0 0 0 0 0 0 0 0 0 0 0 0 0 0 0 0 0 0 0 0 0 0 0 0 0 0 0 0 0 0 0 0 0 0
0 0 0 0 0 0 0 0 0 0 0 0 0 0 0 0 0 0 0 0 0 0 0 0 0 0 0 0 0 0 0 0 0 0 0 0 0 0 0 0 0 0 0
0 0 0 0 0 0 0 0 0 0 0 0 0 0 0 0 0 0 0 0 0 0 0 0 0 0 0 0 0 0 0 0 0 0 0 0 0 0 0 0 0 0 0
0 0 0 0 0 0 0 0 0 0 0 0 0 0 0 0 0 0 0 0 0 0 0 0 0 0 0 0 0 0 0 0 0 0 0 0 0 0 0 0 0 0 0
0 0 0 0 0 0 0 0 0 0 0 0 0 0 0 0 0 0 0 0 0 0 0 0 0 0 0 0 0 0 0 0 0 0 0 0 0 0 0 0 0 0 0
0 0 0 0 0 0 0 0 0 0 0 0 0 0 0 0 0 0 0 0 0 0 0 0 0 0 0 0 0 0 0 0 0 0 0 0 0 0 0 0 0 0 0
0 0 0 0 0 0 0 0 0 0 0 0 0 0 0 0 0 0 0 0 0 0 0 0 0 0 0 0 0 0 0 0 0 0 0 0 0 0 0 0 0 0 0
0 0 0 0 0 0 0 0 0 0 0 0 0 0 0 0 0 0 0 0 0 0 0 0 0 0 0 0 0 0 0 0 0 0 0 0 0 0 0 0 0 0 0
Wind_Speed_500mb
28 32 40 38 36 37 35 33 32 29 25 22 21 17 16 15 14 13 13 12 13 9 6 7 10 7 7 6 5 4 4 5 6 7 8 6 7 8 10 16 15 14 15
30 33 39 39 38 36 34 32 31 30 27 24 22 18 16 18 16 13 12 11 9 10 7 5 6 6 5 3 3 1 2 3 4 5 7 4 2 3 4 7 9 15 11
25 35 39 40 39 37 35 33 30 29 26 24 22 19 19 19 20 16 14 15 16 13 11 11 12 11 9 9 7 6 3 2 2 5 15 6 2 1 3 2 2 5 7
24 34 38 41 40 38 37 36 33 28 26 25 24 24 24 24 22 20 19 19 21 20 16 16 17 16 15 12 11 11 9 7 6 8 12 1 10 5 5 5 4 3 1
23 32 34 39 40 38 38 38 34 29 27 26 25 27 25 22 21 23 22 23 26 24 20 20 18 16 15 12 11 11 10 10 10 10 9 9 9 4 7 6 7 7 8
26 32 35 37 41 40 38 38 35 32 28 28 26 32 34 27 23 23 23 25 24 21 22 21 18 17 13 9 8 7 8 10 12 9 9 18 16 9 9 5 6 7 8
28 33 36 38 42 44 41 40 38 35 33 33 37 37 33 29 23 22 25 24 24 23 21 18 16 11 7 5 3 4 6 9 14 15 19 15 17 19 12 12 12 11 9
29 34 38 40 42 45 47 45 42 40 40 42 41 44 33 30 26 25 26 24 22 21 21 18 13 11 8 6 5 4 5 7 10 12 15 22 15 13 15 15 16 15 14
31 36 40 41 46 48 49 49 46 45 47 48 46 38 33 30 27 27 27 25 23 23 21 17 14 12 9 8 7 6 7 7 9 11 13 17 14 15 16 17 17 17 17
32 38 42 44 49 52 52 52 50 51 52 49 45 42 37 32 29 29 28 28 27 26 22 20 17 14 12 11 10 9 8 9 10 12 17 16 16 15 16 17 19 19 18
36 41 43 47 48 52 54 56 56 56 56 55 54 48 41 36 35 35 32 31 29 27 26 23 21 18 16 15 14 13 13 13 14 15 18 15 16 17 17 18 18 17 17
40 42 46 49 50 51 50 50 62 64 64 62 62 55 47 43 41 40 38 35 34 32 32 29 26 22 21 19 17 17 17 16 17 18 17 17 16 16 18 19 20 19 18
40 46 48 51 53 56 58 61 60 64 67 69 68 59 52 49 48 45 43 40 39 37 35 32 29 27 24 20 18 18 16 17 16 17 15 16 16 15 18 17 18 18 17
41 45 50 55 59 61 63 66 66 65 69 70 68 61 59 55 54 49 49 46 46 43 42 37 33 29 26 23 21 20 19 18 17 16 15 16 17 17 15 15 13 1 13
44 46 53 57 62 65 67 68 66 69 70 72 68 65 66 62 60 57 56 53 52 49 49 44 41 37 34 30 27 25 22 20 18 17 16 16 18 17 14 10 12 21 20
33 38 48 57 60 65 70 70 72 70 71 70 70 68 70 67 66 64 61 59 57 56 53 49 46 44 41 36 33 30 26 23 21 19 18 15 16 17 15 13 22 17 15
46 43 43 45 55 63 68 70 70 70 68 70 69 70 73 70 70 69 67 64 61 60 58 56 53 49 44 40 38 33 30 28 25 22 20 18 20 20 19 24 27 27 25
37 43 44 45 46 56 61 67 71 73 74 70 70 72 75 73 75 78 74 72 68 67 66 64 61 57 51 47 42 37 35 31 28 26 24 24 23 26 31 40 44 33 20
24 26 33 37 41 41 52 61 66 69 74 74 71 74 75 78 79 83 82 79 75 75 72 71 69 63 60 55 49 46 41 36 32 29 28 28 29 30 39 41 28 21 21
6 10 16 23 27 34 41 51 60 61 69 73 78 82 82 83 82 84 87 86 82 80 78 76 71 67 65 59 54 50 45 42 38 35 32 33 34 41 36 38 36 30 24
27 25 17 9 8 15 27 37 47 57 66 72 78 82 83 86 85 88 91 93 91 88 84 80 75 73 68 63 57 50 46 47 45 44 42 41 42 40 40 38 39 34 30
42 39 35 28 20 12 7 19 29 37 45 57 65 73 78 84 89 91 94 98 100 94 91 89 87 86 78 78 66 50 30 43 52 53 51 51 49 47 45 44 43 38 34
40 38 35 32 28 24 20 17 20 28 38 48 49 61 68 73 84 92 97 98 104 103 102 99 97 97 91 87 79 49 22 26 49 54 61 58 57 55 53 50 46 43 39
38 32 30 27 25 23 21 19 18 21 28 32 37 48 52 62 65 77 90 99 105 111 109 108 105 103 99 100 87 86 55 31 27 25 55 61 60 58 58 54 51 49 45
38 38 36 32 30 30 26 20 18 17 23 31 31 38 50 56 61 62 73 84 98 112 116 114 114 114 112 109 106 99 92 67 47 29 32 56 65 67 63 60 58 55 51
44 43 40 37 37 35 36 32 28 28 28 32 35 37 43 51 56 60 60 73 82 94 111 117 116 117 117 115 112 107 105 98 81 61 39 42 60 66 70 67 67 64 58
Wind_Direction_500mb
200 200 193 191 187 179 179 182 183 187 192 191 188 186 193 193 195 190 185 189 202 228 280 317 331 5 32 21 26 46 35 41 49 60 83 107 78 73 82 88 92 82 78
192 203 197 197 195 189 184 186 195 195 200 201 206 212 216 214 211 200 190 196 229 252 283 324 315 311 325 319 312 26 66 64 58 67 71 10 113 67 93 101 90 83 73
191 202 199 202 202 198 196 193 192 197 201 207 208 207 207 211 213 212 220 231 249 264 281 293 291 296 294 287 276 268 230 186 135 105 80 354 348 223 213 166 37 79 88
194 199 203 205 208 205 203 203 203 205 202 201 197 203 216 227 213 219 228 239 253 261 274 278 283 292 289 281 271 257 241 218 185 153 105 119 310 287 261 247 262 273 281
199 201 207 206 209 206 206 206 206 206 212 221 216 215 231 234 231 233 234 237 246 260 271 276 281 284 280 274 265 254 237 221 193 174 127 175 224 281 262 279 267 274 271
209 203 211 206 209 208 208 210 209 210 212 214 223 234 241 249 242 235 234 239 251 260 266 274 281 280 278 270 252 235 222 207 189 153 145 207 211 212 272 285 309 291 284
216 209 214 208 211 210 205 211 210 209 207 217 230 239 242 243 235 236 241 248 255 260 262 266 269 263 256 246 225 198 197 194 204 190 161 190 229 221 254 270 275 277 286
222 218 216 212 212 213 211 212 215 212 212 220 229 237 238 238 237 240 248 250 250 252 259 260 241 226 221 224 223 217 202 201 211 216 200 227 265 256 265 269 268 274 275
226 225 220 218 215 214 215 218 219 212 213 221 231 250 244 242 242 245 247 245 245 249 249 239 230 228 230 235 235 230 222 225 232 230 226 254 266 269 273 276 280 280 281
231 229 223 224 220 216 215 216 216 215 219 229 236 251 248 245 243 242 239 239 242 243 236 229 229 232 236 239 245 245 248 244 247 235 239 262 270 277 279 283 284 290 291
237 234 229 225 223 220 219 218 218 220 224 231 237 245 243 238 239 239 236 238 237 234 229 225 225 227 229 233 238 246 249 251 252 251 258 265 269 276 284 286 288 294 296
247 245 237 231 227 222 219 221 222 225 228 232 238 242 237 232 235 234 234 233 231 227 223 223 223 223 226 229 231 234 237 238 242 246 254 255 258 265 271 276 288 294 295
253 246 247 239 232 228 222 224 229 226 231 234 237 240 234 229 229 230 234 232 231 226 226 224 221 223 227 231 232 235 239 240 243 247 253 252 252 252 264 278 287 292 295
242 244 247 241 239 234 230 230 231 231 231 235 237 235 234 229 231 231 234 233 231 229 228 228 228 232 234 237 241 243 242 245 248 253 253 254 252 246 254 263 275 244 170
245 242 246 247 240 239 237 235 236 233 236 238 242 235 234 233 232 231 230 231 230 228 228 228 228 229 232 234 236 240 244 249 252 253 254 248 248 242 237 239 150 174 217
269 261 252 248 248 242 239 239 240 237 237 239 241 239 240 236 235 236 235 234 232 230 229 228 227 227 227 229 230 232 235 240 246 252 257 252 246 246 193 160 189 173 242
266 264 263 262 253 246 244 243 240 242 239 242 242 241 242 237 238 239 238 236 235 233 230 228 228 228 228 228 230 231 234 236 237 236 240 241 232 232 205 181 194 215 260
251 256 259 256 256 251 249 249 247 245 246 243 246 245 244 242 240 241 240 238 237 236 233 230 230 228 228 230 230 231 233 236 238 239 235 230 222 211 202 197 218 251 265
257 251 250 251 253 253 250 246 249 249 247 247 246 247 247 248 242 241 242 242 240 238 234 231 229 227 226 225 226 230 233 235 237 238 235 229 212 215 219 229 251 252 247
277 246 237 248 248 250 248 247 246 247 251 250 249 250 251 251 247 244 244 244 241 240 236 232 231 228 227 225 223 225 227 232 235 237 237 232 221 218 230 228 233 245 249
55 62 60 32 329 288 271 262 258 252 253 255 256 254 251 252 250 247 245 244 243 242 240 237 232 229 225 223 219 221 223 230 232 234 234 234 233 228 231 230 234 238 239
64 60 57 53 45 27 307 281 265 263 264 264 265 263 257 254 254 249 246 245 246 243 240 236 232 229 226 227 219 223 222 228 229 230 233 233 232 230 233 232 234 235 231
55 53 49 44 38 27 11 338 303 281 269 268 266 266 268 262 257 255 251 246 246 246 243 241 237 234 229 227 222 219 206 221 226 226 229 230 231 231 228 230 232 230 232
48 49 50 44 39 35 27 13 346 312 297 290 287 281 275 270 263 259 258 252 247 247 245 244 241 238 233 233 224 221 219 201 196 213 226 226 228 230 228 228 229 229 231
45 46 47 42 34 24 19 18 7 336 316 313 296 275 279 279 277 268 261 259 252 249 247 245 243 238 236 236 235 230 225 225 218 212 209 220 224 226 228 228 229 229 230
34 33 33 33 29 20 11 4 0 346 328 315 311 295 280 280 281 280 270 264 259 253 251 247 245 244 240 237 238 235 233 225 222 218 215 222 228 227 227 229 229 229 230
Wind_Speed_850mb
28 32 40 38 36 37 35 33 32 29 25 22 21 17 16 15 14 13 13 12 13 9 6 7 10 7 7 6 5 4 4 5 6 7 8 6 7 8 10 16 15 14 15
30 33 39 39 38 36 34 32 31 30 27 24 22 18 16 18 16 13 12 11 9 10 7 5 6 6 5 3 3 1 2 3 4 5 7 4 2 3 4 7 9 15 11
25 35 39 40 39 37 35 33 30 29 26 24 22 19 19 19 20 16 14 15 16 13 11 11 12 11 9 9 7 6 3 2 2 5 15 6 2 1 3 2 2 5 7
24 34 38 41 40 38 37 36 33 28 26 25 24 24 24 24 22 20 19 19 21 20 16 16 17 16 15 12 11 11 9 7 6 8 12 1 10 5 5 5 4 3 1
23 32 34 39 40 38 38 38 34 29 27 26 25 27 25 22 21 23 22 23 26 24 20 20 18 16 15 12 11 11 10 10 10 10 9 9 9 4 7 6 7 7 8
26 32 35 37 41 40 38 38 35 32 28 28 26 32 34 27 23 23 23 25 24 21 22 21 18 17 13 9 8 7 8 10 12 9 9 18 16 9 9 5 6 7 8
28 33 36 38 42 44 41 40 38 35 33 33 37 37 33 29 23 22 25 24 24 23 21 18 16 11 7 5 3 4 6 9 14 15 19 15 17 19 12 12 12 11 9
29 34 38 40 42 45 47 45 42 40 40 42 41 44 33 30 26 25 26 24 22 21 21 18 13 11 8 6 5 4 5 7 10 12 15 22 15 13 15 15 16 15 14
31 36 40 41 46 48 49 49 46 45 47 48 46 38 33 30 27 27 27 25 23 23 21 17 14 12 9 8 7 6 7 7 9 11 13 17 14 15 16 17 17 17 17
32 38 42 44 49 52 52 52 50 51 52 49 45 42 37 32 29 29 28 28 27 26 22 20 17 14 12 11 10 9 8 9 10 12 17 16 16 15 16 17 19 19 18
36 41 43 47 48 52 54 56 56 56 56 55 54 48 41 36 35 35 32 31 29 27 26 23 21 18 16 15 14 13 13 13 14 15 18 15 16 17 17 18 18 17 17
40 42 46 49 50 51 50 50 62 64 64 62 62 55 47 43 41 40 38 35 34 32 32 29 26 22 21 19 17 17 17 16 17 18 17 17 16 16 18 19 20 19 18
40 46 48 51 53 56 58 61 60 64 67 69 68 59 52 49 48 45 43 40 39 37 35 32 29 27 24 20 18 18 16 17 16 17 15 16 16 15 18 17 18 18 17
41 45 50 55 59 61 63 66 66 65 69 70 68 61 59 55 54 49 49 46 46 43 42 37 33 29 26 23 21 20 19 18 17 16 15 16 17 17 15 15 13 1 13
44 46 53 57 62 65 67 68 66 69 70 72 68 65 66 62 60 57 56 53 52 49 49 44 41 37 34 30 27 25 22 20 18 17 16 16 18 17 14 10 12 21 20
33 38 48 57 60 65 70 70 72 70 71 70 70 68 70 67 66 64 61 59 57 56 53 49 46 44 41 36 33 30 26 23 21 19 18 15 16 17 15 13 22 17 15
46 43 43 45 55 63 68 70 70 70 68 70 69 70 73 70 70 69 67 64 61 60 58 56 53 49 44 40 38 33 30 28 25 22 20 18 20 20 19 24 27 27 25
37 43 44 45 46 56 61 67 71 73 74 70 70 72 75 73 75 78 74 72 68 67 66 64 61 57 51 47 42 37 35 31 28 26 24 24 23 26 31 40 44 33 20
24 26 33 37 41 41 52 61 66 69 74 74 71 74 75 78 79 83 82 79 75 75 72 71 69 63 60 55 49 46 41 36 32 29 28 28 29 30 39 41 28 21 21
6 10 16 23 27 34 41 51 60 61 69 73 78 82 82 83 82 84 87 86 82 80 78 76 71 67 65 59 54 50 45 42 38 35 32 33 34 41 36 38 36 30 24
27 25 17 9 8 15 27 37 47 57 66 72 78 82 83 86 85 88 91 93 91 88 84 80 75 73 68 63 57 50 46 47 45 44 42 41 42 40 40 38 39 34 30
42 39 35 28 20 12 7 19 29 37 45 57 65 73 78 84 89 91 94 98 100 94 91 89 87 86 78 78 66 50 30 43 52 53 51 51 49 47 45 44 43 38 34
40 38 35 32 28 24 20 17 20 28 38 48 49 61 68 73 84 92 97 98 104 103 102 99 97 97 91 87 79 49 22 26 49 54 61 58 57 55 53 50 46 43 39
38 32 30 27 25 23 21 19 18 21 28 32 37 48 52 62 65 77 90 99 105 111 109 108 105 103 99 100 87 86 55 31 27 25 55 61 60 58 58 54 51 49 45
38 38 36 32 30 30 26 20 18 17 23 31 31 38 50 56 61 62 73 84 98 112 116 114 114 114 112 109 106 99 92 67 47 29 32 56 65 67 63 60 58 55 51
44 43 40 37 37 35 36 32 28 28 28 32 35 37 43 51 56 60 60 73 82 94 111 117 116 117 117 115 112 107 105 98 81 61 39 42 60 66 70 67 67 64 58
Wind_Direction_850mb
200 200 193 191 187 179 179 182 183 187 192 191 188 186 193 193 195 190 185 189 202 228 280 317 331 5 32 21 26 46 35 41 49 60 83 107 78 73 82 88 92 82 78
192 203 197 197 195 189 184 186 195 195 200 201 206 212 216 214 211 200 190 196 229 252 283 324 315 311 325 319 312 26 66 64 58 67 71 10 113 67 93 101 90 83 73
191 202 199 202 202 198 196 193 192 197 201 207 208 207 207 211 213 212 220 231 249 264 281 293 291 296 294 287 276 268 230 186 135 105 80 354 348 223 213 166 37 79 88
194 199 203 205 208 205 203 203 203 205 202 201 197 203 216 227 213 219 228 239 253 261 274 278 283 292 289 281 271 257 241 218 185 153 105 119 310 287 261 247 262 273 281
199 201 207 206 209 206 206 206 206 206 212 221 216 215 231 234 231 233 234 237 246 260 271 276 281 284 280 274 265 254 237 221 193 174 127 175 224 281 262 279 267 274 271
209 203 211 206 209 208 208 210 209 210 212 214 223 234 241 249 242 235 234 239 251 260 266 274 281 280 278 270 252 235 222 207 189 153 145 207 211 212 272 285 309 291 284
216 209 214 208 211 210 205 211 210 209 207 217 230 239 242 243 235 236 241 248 255 260 262 266 269 263 256 246 225 198 197 194 204 190 161 190 229 221 254 270 275 277 286
222 218 216 212 212 213 211 212 215 212 212 220 229 237 238 238 237 240 248 250 250 252 259 260 241 226 221 224 223 217 202 201 211 216 200 227 265 256 265 269 268 274 275
226 225 220 218 215 214 215 218 219 212 213 221 231 250 244 242 242 245 247 245 245 249 249 239 230 228 230 235 235 230 222 225 232 230 226 254 266 269 273 276 280 280 281
231 229 223 224 220 216 215 216 216 215 219 229 236 251 248 245 243 242 239 239 242 243 236 229 229 232 236 239 245 245 248 244 247 235 239 262 270 277 279 283 284 290 291
237 234 229 225 223 220 219 218 218 220 224 231 237 245 243 238 239 239 236 238 237 234 229 225 225 227 229 233 238 246 249 251 252 251 258 265 269 276 284 286 288 294 296
247 245 237 231 227 222 219 221 222 225 228 232 238 242 237 232 235 234 234 233 231 227 223 223 223 223 226 229 231 234 237 238 242 246 254 255 258 265 271 276 288 294 295
253 246 247 239 232 228 222 224 229 226 231 234 237 240 234 229 229 230 234 232 231 226 226 224 221 223 227 231 232 235 239 240 243 247 253 252 252 252 264 278 287 292 295
242 244 247 241 239 234 230 230 231 231 231 235 237 235 234 229 231 231 234 233 231 229 228 228 228 232 234 237 241 243 242 245 248 253 253 254 252 246 254 263 275 244 170
245 242 246 247 240 239 237 235 236 233 236 238 242 235 234 233 232 231 230 231 230 228 228 228 228 229 232 234 236 240 244 249 252 253 254 248 248 242 237 239 150 174 217
269 261 252 248 248 242 239 239 240 237 237 239 241 239 240 236 235 236 235 234 232 230 229 228 227 227 227 229 230 232 235 240 246 252 257 252 246 246 193 160 189 173 242
266 264 263 262 253 246 244 243 240 242 239 242 242 241 242 237 238 239 238 236 235 233 230 228 228 228 228 228 230 231 234 236 237 236 240 241 232 232 205 181 194 215 260
251 256 259 256 256 251 249 249 247 245 246 243 246 245 244 242 240 241 240 238 237 236 233 230 230 228 228 230 230 231 233 236 238 239 235 230 222 211 202 197 218 251 265
257 251 250 251 253 253 250 246 249 249 247 247 246 247 247 248 242 241 242 242 240 238 234 231 229 227 226 225 226 230 233 235 237 238 235 229 212 215 219 229 251 252 247
277 246 237 248 248 250 248 247 246 247 251 250 249 250 251 251 247 244 244 244 241 240 236 232 231 228 227 225 223 225 227 232 235 237 237 232 221 218 230 228 233 245 249
55 62 60 32 329 288 271 262 258 252 253 255 256 254 251 252 250 247 245 244 243 242 240 237 232 229 225 223 219 221 223 230 232 234 234 234 233 228 231 230 234 238 239
64 60 57 53 45 27 307 281 265 263 264 264 265 263 257 254 254 249 246 245 246 243 240 236 232 229 226 227 219 223 222 228 229 230 233 233 232 230 233 232 234 235 231
55 53 49 44 38 27 11 338 303 281 269 268 266 266 268 262 257 255 251 246 246 246 243 241 237 234 229 227 222 219 206 221 226 226 229 230 231 231 228 230 232 230 232
48 49 50 44 39 35 27 13 346 312 297 290 287 281 275 270 263 259 258 252 247 247 245 244 241 238 233 233 224 221 219 201 196 213 226 226 228 230 228 228 229 229 231
45 46 47 42 34 24 19 18 7 336 316 313 296 275 279 279 277 268 261 259 252 249 247 245 243 238 236 236 235 230 225 225 218 212 209 220 224 226 228 228 229 229 230
34 33 33 33 29 20 11 4 0 346 328 315 311 295 280 280 281 280 270 264 259 253 251 247 245 244 240 237 238 235 233 225 222 218 215 222 228 227 227 229 229 229 230